Time,TemperatureF,DewpointF,PressureIn,WindDirection,WindDirectionDegrees,WindSpeedMPH,WindSpeedGustMPH,Humidity,HourlyPrecipIn,Conditions,Clouds,dailyrainin,SoftwareType,DateUTC
2013-07-20 00:00:00,72.4,71.8,30.13,East,96,0.0,0.0,98,0.00,,,1.35,Wunderground v.1.15,2013-07-20 04:00:00,
2013-07-20 00:05:00,72.4,71.8,30.13,East,96,0.0,0.0,98,0.00,,,0.00,Wunderground v.1.15,2013-07-20 04:05:00,
2013-07-20 00:10:00,72.4,71.8,30.13,East,96,0.0,0.0,98,0.00,,,0.00,Wunderground v.1.15,2013-07-20 04:10:00,
2013-07-20 00:20:00,72.5,71.9,30.13,East,96,0.0,0.0,98,0.00,,,0.00,Wunderground v.1.15,2013-07-20 04:20:00,
2013-07-20 00:25:00,72.5,72.2,30.13,East,96,0.0,0.0,99,0.00,,,0.00,Wunderground v.1.15,2013-07-20 04:25:00,
2013-07-20 00:30:00,72.5,71.9,30.13,East,96,0.0,0.0,98,0.00,,,0.00,Wunderground v.1.15,2013-07-20 04:30:00,
2013-07-20 00:35:00,72.5,72.2,30.13,East,96,0.0,0.0,99,0.00,,,0.00,Wunderground v.1.15,2013-07-20 04:35:00,
2013-07-20 00:40:00,72.6,72.0,30.13,East,94,0.0,0.0,98,0.00,,,0.00,Wunderground v.1.15,2013-07-20 04:40:00,
2013-07-20 00:50:00,72.6,72.3,30.12,ENE,76,0.0,0.0,99,0.00,,,0.00,Wunderground v.1.15,2013-07-20 04:50:00,
2013-07-20 00:55:00,72.6,72.3,30.12,ENE,77,0.0,0.0,99,0.00,,,0.00,Wunderground v.1.15,2013-07-20 04:55:00,
2013-07-20 01:00:00,72.6,72.3,30.12,ENE,77,0.0,0.0,99,0.00,,,0.00,Wunderground v.1.15,2013-07-20 05:00:00,
2013-07-20 01:05:00,72.6,72.0,30.12,ENE,77,0.0,0.0,98,0.00,,,0.00,Wunderground v.1.15,2013-07-20 05:05:00,
2013-07-20 01:15:00,72.6,72.0,30.11,ENE,76,0.0,0.0,98,0.00,,,0.00,Wunderground v.1.15,2013-07-20 05:15:00,
2013-07-20 01:20:00,72.5,71.9,30.11,ENE,77,0.0,0.0,98,0.00,,,0.00,Wunderground v.1.15,2013-07-20 05:20:00,
2013-07-20 01:25:00,72.6,72.3,30.11,ENE,77,0.0,0.0,99,0.00,,,0.00,Wunderground v.1.15,2013-07-20 05:25:00,
2013-07-20 01:32:00,72.4,72.0,30.11,ENE,77,0.0,1.0,98,0.00,,,0.00,weatherlink.com 1.10,2013-07-20 05:32:00,
2013-07-20 01:40:00,72.4,71.8,30.11,ENE,77,0.0,0.0,98,0.00,,,0.00,Wunderground v.1.15,2013-07-20 05:40:00,
2013-07-20 01:45:00,72.4,72.1,30.11,ENE,77,0.0,0.0,99,0.00,,,0.00,Wunderground v.1.15,2013-07-20 05:45:00,
2013-07-20 01:50:00,72.5,72.2,30.10,ENE,77,0.0,0.0,99,0.00,,,0.00,Wunderground v.1.15,2013-07-20 05:50:00,
2013-07-20 01:55:00,72.5,72.2,30.10,ENE,76,0.0,0.0,99,0.00,,,0.00,Wunderground v.1.15,2013-07-20 05:55:00,
2013-07-20 02:05:00,72.5,72.2,30.10,ENE,76,0.0,0.0,99,0.00,,,0.00,Wunderground v.1.15,2013-07-20 06:05:00,
2013-07-20 02:10:00,72.5,72.2,30.10,ENE,77,0.0,0.0,99,0.00,,,0.00,Wunderground v.1.15,2013-07-20 06:10:00,
2013-07-20 02:15:00,72.5,72.2,30.10,ENE,77,0.0,0.0,99,0.00,,,0.00,Wunderground v.1.15,2013-07-20 06:15:00,
2013-07-20 02:20:00,72.5,72.2,30.10,ENE,77,0.0,0.0,99,0.00,,,0.00,Wunderground v.1.15,2013-07-20 06:20:00,
2013-07-20 02:25:00,72.5,72.2,30.10,ENE,77,0.0,0.0,99,0.00,,,0.00,Wunderground v.1.15,2013-07-20 06:25:00,
2013-07-20 02:30:00,72.5,72.2,30.09,ENE,76,0.0,0.0,99,0.00,,,0.00,Wunderground v.1.15,2013-07-20 06:30:00,
2013-07-20 02:37:00,72.4,72.0,30.09,ENE,76,0.0,0.0,98,0.00,,,0.00,weatherlink.com 1.10,2013-07-20 06:37:00,
2013-07-20 02:45:00,72.4,72.1,30.09,ENE,76,0.0,0.0,99,0.00,,,0.00,Wunderground v.1.15,2013-07-20 06:45:00,
2013-07-20 02:50:00,72.4,72.1,30.09,ENE,77,0.0,0.0,99,0.00,,,0.00,Wunderground v.1.15,2013-07-20 06:50:00,
2013-07-20 02:55:00,72.4,72.1,30.09,ENE,77,0.0,0.0,99,0.00,,,0.00,Wunderground v.1.15,2013-07-20 06:55:00,
2013-07-20 03:05:00,72.1,71.5,30.09,ENE,77,0.0,0.0,98,0.00,,,0.00,Wunderground v.1.15,2013-07-20 07:05:00,
2013-07-20 03:10:00,72.1,71.5,30.09,ENE,77,0.0,0.0,98,0.00,,,0.00,Wunderground v.1.15,2013-07-20 07:10:00,
2013-07-20 03:15:00,72.1,71.8,30.08,ENE,76,0.0,0.0,99,0.00,,,0.00,Wunderground v.1.15,2013-07-20 07:15:00,
2013-07-20 03:20:00,72.1,71.8,30.08,ENE,77,0.0,0.0,99,0.00,,,0.00,Wunderground v.1.15,2013-07-20 07:20:00,
2013-07-20 03:27:00,72.1,72.0,30.08,ENE,77,0.0,0.0,99,0.00,,,0.00,weatherlink.com 1.10,2013-07-20 07:27:00,
2013-07-20 03:35:00,72.0,71.7,30.08,ENE,76,0.0,0.0,99,0.00,,,0.00,Wunderground v.1.15,2013-07-20 07:35:00,
2013-07-20 03:40:00,72.0,71.7,30.07,ENE,77,0.0,0.0,99,0.00,,,0.00,Wunderground v.1.15,2013-07-20 07:40:00,
2013-07-20 03:45:00,71.9,71.6,30.07,ENE,76,0.0,0.0,99,0.00,,,0.00,Wunderground v.1.15,2013-07-20 07:45:00,
2013-07-20 03:50:00,72.0,71.7,30.07,ENE,77,0.0,0.0,99,0.00,,,0.00,Wunderground v.1.15,2013-07-20 07:50:00,
2013-07-20 03:59:00,72.1,72.0,30.07,ENE,76,0.0,0.0,99,0.00,,,0.00,weatherlink.com 1.10,2013-07-20 07:59:00,
2013-07-20 04:05:00,72.1,71.8,30.07,ENE,77,0.0,0.0,99,0.00,,,0.00,Wunderground v.1.15,2013-07-20 08:05:00,
2013-07-20 04:10:00,72.1,71.8,30.07,ENE,76,0.0,0.0,99,0.00,,,0.00,Wunderground v.1.15,2013-07-20 08:10:00,
2013-07-20 04:15:00,72.2,71.9,30.07,ENE,77,0.0,0.0,99,0.00,,,0.00,Wunderground v.1.15,2013-07-20 08:15:00,
2013-07-20 04:20:00,72.2,71.9,30.07,ENE,77,0.0,0.0,99,0.00,,,0.00,Wunderground v.1.15,2013-07-20 08:20:00,
2013-07-20 04:30:00,72.2,71.9,30.07,ENE,77,0.0,0.0,99,0.00,,,0.00,Wunderground v.1.15,2013-07-20 08:30:00,
2013-07-20 04:35:00,72.2,71.9,30.07,ENE,77,0.0,0.0,99,0.00,,,0.00,Wunderground v.1.15,2013-07-20 08:35:00,
2013-07-20 04:40:00,72.2,71.9,30.07,ENE,77,0.0,0.0,99,0.00,,,0.00,Wunderground v.1.15,2013-07-20 08:40:00,
2013-07-20 04:45:00,72.2,71.9,30.07,ENE,77,0.0,0.0,99,0.00,,,0.00,Wunderground v.1.15,2013-07-20 08:45:00,
2013-07-20 04:50:00,72.2,71.9,30.06,ENE,77,0.0,0.0,99,0.00,,,0.00,Wunderground v.1.15,2013-07-20 08:50:00,
2013-07-20 05:00:00,72.2,71.9,30.07,ENE,77,0.0,0.0,99,0.00,,,0.00,Wunderground v.1.15,2013-07-20 09:00:00,
2013-07-20 05:05:00,72.2,71.9,30.07,ENE,77,0.0,0.0,99,0.00,,,0.00,Wunderground v.1.15,2013-07-20 09:05:00,
2013-07-20 05:10:00,72.2,71.9,30.07,ENE,77,0.0,0.0,99,0.00,,,0.00,Wunderground v.1.15,2013-07-20 09:10:00,
2013-07-20 05:15:00,72.2,71.9,30.07,ENE,77,0.0,0.0,99,0.00,,,0.00,Wunderground v.1.15,2013-07-20 09:15:00,
2013-07-20 05:20:00,72.3,72.0,30.07,ENE,77,0.0,0.0,99,0.00,,,0.00,Wunderground v.1.15,2013-07-20 09:20:00,
2013-07-20 05:30:00,72.2,71.9,30.07,ENE,77,0.0,0.0,99,0.00,,,0.00,Wunderground v.1.15,2013-07-20 09:30:00,
2013-07-20 05:35:00,72.2,71.9,30.07,ENE,77,0.0,0.0,99,0.00,,,0.00,Wunderground v.1.15,2013-07-20 09:35:00,
2013-07-20 05:40:00,72.1,71.8,30.07,ENE,77,0.0,0.0,99,0.00,,,0.00,Wunderground v.1.15,2013-07-20 09:40:00,
2013-07-20 05:45:00,72.1,71.8,30.07,ENE,77,0.0,0.0,99,0.00,,,0.00,Wunderground v.1.15,2013-07-20 09:45:00,
2013-07-20 05:53:00,72.0,72.0,30.07,ENE,77,0.0,0.0,99,0.00,,,0.00,weatherlink.com 1.10,2013-07-20 09:53:00,
2013-07-20 06:00:00,72.0,71.7,30.07,ENE,77,0.0,0.0,99,0.00,,,0.00,Wunderground v.1.15,2013-07-20 10:00:00,
2013-07-20 06:10:00,72.1,72.0,30.08,ENE,77,0.0,0.0,99,0.00,,,0.00,weatherlink.com 1.10,2013-07-20 10:10:00,
2013-07-20 06:15:00,72.0,71.7,30.08,ENE,77,0.0,0.0,99,0.00,,,0.00,Wunderground v.1.15,2013-07-20 10:15:00,
2013-07-20 06:25:00,72.1,71.8,30.08,ENE,77,0.0,0.0,99,0.00,,,0.00,Wunderground v.1.15,2013-07-20 10:25:00,
2013-07-20 06:30:00,72.0,71.7,30.08,ENE,77,0.0,0.0,99,0.00,,,0.00,Wunderground v.1.15,2013-07-20 10:30:00,
2013-07-20 06:35:00,72.2,71.9,30.08,ENE,77,0.0,0.0,99,0.00,,,0.00,Wunderground v.1.15,2013-07-20 10:35:00,
2013-07-20 06:40:00,72.1,71.8,30.09,ENE,77,0.0,0.0,99,0.00,,,0.00,Wunderground v.1.15,2013-07-20 10:40:00,
2013-07-20 06:50:00,72.3,72.0,30.09,ENE,77,0.0,0.0,99,0.00,,,0.00,Wunderground v.1.15,2013-07-20 10:50:00,
2013-07-20 06:55:00,72.3,72.0,30.09,ENE,77,0.0,0.0,99,0.00,,,0.00,Wunderground v.1.15,2013-07-20 10:55:00,
2013-07-20 07:00:00,72.4,72.1,30.09,ENE,76,0.0,0.0,99,0.00,,,0.00,Wunderground v.1.15,2013-07-20 11:00:00,
2013-07-20 07:05:00,72.4,72.1,30.10,ENE,77,0.0,0.0,99,0.00,,,0.00,Wunderground v.1.15,2013-07-20 11:05:00,
2013-07-20 07:10:00,72.4,72.1,30.10,ENE,77,0.0,0.0,99,0.00,,,0.00,Wunderground v.1.15,2013-07-20 11:10:00,
2013-07-20 07:15:00,72.6,72.3,30.10,ENE,77,0.0,0.0,99,0.00,,,0.00,Wunderground v.1.15,2013-07-20 11:15:00,
2013-07-20 07:25:00,72.8,72.5,30.10,ENE,77,0.0,0.0,99,0.00,,,0.00,Wunderground v.1.15,2013-07-20 11:25:00,
2013-07-20 07:30:00,73.0,72.7,30.10,ENE,77,0.0,0.0,99,0.00,,,0.00,Wunderground v.1.15,2013-07-20 11:30:00,
2013-07-20 07:35:00,73.2,72.9,30.10,ENE,77,0.0,0.0,99,0.00,,,0.00,Wunderground v.1.15,2013-07-20 11:35:00,
2013-07-20 07:40:00,73.5,73.2,30.10,ENE,77,0.0,1.0,99,0.00,,,0.00,Wunderground v.1.15,2013-07-20 11:40:00,
2013-07-20 07:45:00,73.7,73.4,30.10,ENE,77,0.0,1.0,99,0.00,,,0.00,Wunderground v.1.15,2013-07-20 11:45:00,
2013-07-20 07:55:00,74.3,74.0,30.11,ENE,75,0.0,1.0,99,0.00,,,0.00,Wunderground v.1.15,2013-07-20 11:55:00,
2013-07-20 08:00:00,74.4,74.1,30.11,ENE,77,0.0,0.0,99,0.00,,,0.00,Wunderground v.1.15,2013-07-20 12:00:00,
2013-07-20 08:05:00,74.6,74.3,30.11,ENE,75,0.0,0.0,99,0.00,,,0.00,Wunderground v.1.15,2013-07-20 12:05:00,
2013-07-20 08:10:00,74.9,74.6,30.11,ENE,75,0.0,0.0,99,0.00,,,0.00,Wunderground v.1.15,2013-07-20 12:10:00,
2013-07-20 08:15:00,75.1,74.8,30.11,ENE,73,0.0,0.0,99,0.00,,,0.00,Wunderground v.1.15,2013-07-20 12:15:00,
2013-07-20 08:21:00,75.5,75.0,30.11,ENE,73,0.0,1.0,99,0.00,,,0.00,weatherlink.com 1.10,2013-07-20 12:21:00,
2013-07-20 08:30:00,76.1,75.8,30.11,East,79,0.0,0.0,99,0.00,,,0.00,Wunderground v.1.15,2013-07-20 12:30:00,
2013-07-20 08:35:00,76.3,75.7,30.11,ENE,77,0.0,1.0,98,0.00,,,0.00,Wunderground v.1.15,2013-07-20 12:35:00,
2013-07-20 08:40:00,76.8,76.2,30.11,ENE,77,0.0,0.0,98,0.00,,,0.00,Wunderground v.1.15,2013-07-20 12:40:00,
2013-07-20 08:50:00,78.5,77.6,30.11,NE,53,1.0,1.0,97,0.00,,,0.00,Wunderground v.1.15,2013-07-20 12:50:00,
2013-07-20 08:55:00,79.2,78.0,30.12,ENE,60,0.0,1.0,96,0.00,,,0.00,Wunderground v.1.15,2013-07-20 12:55:00,
2013-07-20 09:00:00,79.7,77.5,30.12,NE,53,1.0,1.0,93,0.00,,,0.00,Wunderground v.1.15,2013-07-20 13:00:00,
2013-07-20 09:10:00,80.0,78.0,30.12,NNE,26,3.0,4.0,93,0.00,,,0.00,weatherlink.com 1.10,2013-07-20 13:10:00,
2013-07-20 09:15:00,80.6,78.1,30.12,NE,54,1.0,3.0,92,0.00,,,0.00,Wunderground v.1.15,2013-07-20 13:15:00,
2013-07-20 09:20:00,81.4,78.5,30.12,NE,54,1.0,2.0,91,0.00,,,0.00,Wunderground v.1.15,2013-07-20 13:20:00,
2013-07-20 09:26:00,82.2,79.0,30.12,NNE,22,3.0,3.0,90,0.00,,,0.00,weatherlink.com 1.10,2013-07-20 13:26:00,
2013-07-20 09:35:00,83.0,78.7,30.12,NNE,33,2.0,2.0,87,0.00,,,0.00,Wunderground v.1.15,2013-07-20 13:35:00,
2013-07-20 09:40:00,83.7,79.4,30.12,NNE,24,3.0,3.0,87,0.00,,,0.00,Wunderground v.1.15,2013-07-20 13:40:00,
2013-07-20 09:45:00,84.1,79.1,30.12,NNE,23,3.0,4.0,85,0.00,,,0.00,Wunderground v.1.15,2013-07-20 13:45:00,
2013-07-20 09:55:00,85.1,80.1,30.12,ENE,64,2.0,2.0,85,0.00,,,0.00,Wunderground v.1.15,2013-07-20 13:55:00,
2013-07-20 10:00:00,85.2,79.4,30.12,NE,37,2.0,3.0,83,0.00,,,0.00,Wunderground v.1.15,2013-07-20 14:00:00,
2013-07-20 10:05:00,85.1,79.4,30.12,NE,39,3.0,3.0,83,0.00,,,0.00,Wunderground v.1.15,2013-07-20 14:05:00,
2013-07-20 10:10:00,84.9,79.2,30.12,ENE,60,2.0,2.0,83,0.00,,,0.00,Wunderground v.1.15,2013-07-20 14:10:00,
2013-07-20 10:16:00,84.6,79.0,30.12,ENE,58,0.0,5.0,84,0.00,,,0.00,weatherlink.com 1.10,2013-07-20 14:16:00,
2013-07-20 10:25:00,84.5,79.5,30.12,NNE,33,1.0,3.0,85,0.00,,,0.00,Wunderground v.1.15,2013-07-20 14:25:00,
2013-07-20 10:30:00,84.7,79.3,30.12,NE,34,1.0,3.0,84,0.00,,,0.00,Wunderground v.1.15,2013-07-20 14:30:00,
2013-07-20 10:35:00,84.8,79.1,30.12,NNE,32,2.0,3.0,83,0.00,,,0.00,Wunderground v.1.15,2013-07-20 14:35:00,
2013-07-20 10:40:00,84.7,78.2,30.12,NE,54,2.0,2.0,81,0.00,,,0.00,Wunderground v.1.15,2013-07-20 14:40:00,
2013-07-20 10:45:00,84.7,78.6,30.12,NE,45,2.0,2.0,82,0.00,,,0.00,Wunderground v.1.15,2013-07-20 14:45:00,
2013-07-20 10:55:00,84.9,78.8,30.12,NE,47,1.0,2.0,82,0.00,,,0.00,Wunderground v.1.15,2013-07-20 14:55:00,
2013-07-20 11:00:00,85.2,78.3,30.12,North,9,2.0,4.0,80,0.00,,,0.00,Wunderground v.1.15,2013-07-20 15:00:00,
2013-07-20 11:05:00,85.3,79.2,30.12,NE,49,2.0,4.0,82,0.00,,,0.00,Wunderground v.1.15,2013-07-20 15:05:00,
2013-07-20 11:10:00,85.3,79.2,30.12,ENE,60,1.0,1.0,82,0.00,,,0.00,Wunderground v.1.15,2013-07-20 15:10:00,
2013-07-20 11:20:00,85.4,79.6,30.12,ENE,57,1.0,1.0,83,0.00,,,0.00,Wunderground v.1.15,2013-07-20 15:20:00,
2013-07-20 11:25:00,85.4,78.1,30.12,NE,44,1.0,1.0,79,0.00,,,0.00,Wunderground v.1.15,2013-07-20 15:25:00,
2013-07-20 11:30:00,85.3,78.4,30.12,NE,34,1.0,2.0,80,0.00,,,0.00,Wunderground v.1.15,2013-07-20 15:30:00,
2013-07-20 11:35:00,85.0,78.5,30.12,ENE,68,1.0,2.0,81,0.00,,,0.00,Wunderground v.1.15,2013-07-20 15:35:00,
2013-07-20 11:40:00,84.6,78.5,30.12,ENE,67,1.0,1.0,82,0.00,,,0.00,Wunderground v.1.15,2013-07-20 15:40:00,
2013-07-20 11:45:00,84.7,79.0,30.12,ENE,60,0.0,1.0,83,0.00,,,0.00,Wunderground v.1.15,2013-07-20 15:45:00,
2013-07-20 11:53:00,85.2,79.0,30.12,ENE,59,0.0,2.0,82,0.00,,,0.00,weatherlink.com 1.10,2013-07-20 15:53:00,
2013-07-20 12:00:00,85.5,79.4,30.12,ENE,76,0.0,1.0,82,0.00,,,0.00,Wunderground v.1.15,2013-07-20 16:00:00,
2013-07-20 12:10:00,85.9,78.6,30.12,NE,46,1.0,2.0,79,0.00,,,0.00,Wunderground v.1.15,2013-07-20 16:10:00,
2013-07-20 12:15:00,86.2,78.5,30.12,ENE,57,1.0,2.0,78,0.00,,,0.00,Wunderground v.1.15,2013-07-20 16:15:00,
2013-07-20 12:20:00,86.4,78.3,30.12,ENE,57,1.0,1.0,77,0.00,,,0.00,Wunderground v.1.15,2013-07-20 16:20:00,
2013-07-20 12:25:00,86.5,78.4,30.12,ENE,57,1.0,1.0,77,0.00,,,0.00,Wunderground v.1.15,2013-07-20 16:25:00,
2013-07-20 12:30:00,86.7,78.2,30.12,ENE,58,1.0,1.0,76,0.00,,,0.00,Wunderground v.1.15,2013-07-20 16:30:00,
2013-07-20 12:40:00,87.0,79.7,30.12,ENE,68,0.0,0.0,79,0.00,,,0.00,Wunderground v.1.15,2013-07-20 16:40:00,
2013-07-20 12:45:00,87.1,78.2,30.12,ENE,65,0.0,0.0,75,0.00,,,0.00,Wunderground v.1.15,2013-07-20 16:45:00,
2013-07-20 12:50:00,87.4,79.3,30.12,ENE,70,1.0,1.0,77,0.00,,,0.00,Wunderground v.1.15,2013-07-20 16:50:00,
2013-07-20 12:55:00,88.3,79.0,30.11,ENE,70,0.0,1.0,74,0.00,,,0.00,Wunderground v.1.15,2013-07-20 16:55:00,
2013-07-20 13:05:00,89.3,78.7,30.11,ENE,60,2.0,4.0,71,0.00,,,0.00,Wunderground v.1.15,2013-07-20 17:05:00,
2013-07-20 13:15:00,88.8,79.0,30.10,East,98,1.0,2.0,73,0.00,,,0.00,Wunderground v.1.15,2013-07-20 17:15:00,
2013-07-20 13:20:00,88.6,77.6,30.10,ENE,57,1.0,1.0,70,0.00,,,0.00,Wunderground v.1.15,2013-07-20 17:20:00,
2013-07-20 13:25:00,88.7,78.1,30.10,East,86,1.0,1.0,71,0.00,,,0.00,Wunderground v.1.15,2013-07-20 17:25:00,
2013-07-20 13:30:00,88.7,77.7,30.10,ENE,75,0.0,0.0,70,0.00,,,0.00,Wunderground v.1.15,2013-07-20 17:30:00,
2013-07-20 13:35:00,88.9,79.1,30.10,East,98,0.0,0.0,73,0.00,,,0.00,Wunderground v.1.15,2013-07-20 17:35:00,
2013-07-20 13:45:00,87.8,77.6,30.09,East,97,1.0,1.0,72,0.00,,,0.00,Wunderground v.1.15,2013-07-20 17:45:00,
2013-07-20 13:50:00,87.7,77.5,30.09,East,97,1.0,2.0,72,0.00,,,0.00,Wunderground v.1.15,2013-07-20 17:50:00,
2013-07-20 13:55:00,87.7,77.5,30.08,ESE,107,1.0,2.0,72,0.00,,,0.00,Wunderground v.1.15,2013-07-20 17:55:00,
2013-07-20 14:00:00,88.4,77.4,30.08,ENE,58,1.0,1.0,70,0.00,,,0.00,Wunderground v.1.15,2013-07-20 18:00:00,
2013-07-20 14:05:00,88.8,76.4,30.08,NE,49,1.0,1.0,67,0.00,,,0.00,Wunderground v.1.15,2013-07-20 18:05:00,
2013-07-20 14:15:00,90.6,76.3,30.07,East,83,1.0,4.0,63,0.00,,,0.00,Wunderground v.1.15,2013-07-20 18:15:00,
2013-07-20 14:20:00,90.1,78.1,30.07,East,89,1.0,1.0,68,0.00,,,0.00,Wunderground v.1.15,2013-07-20 18:20:00,
2013-07-20 14:25:00,89.6,76.7,30.07,East,97,0.0,1.0,66,0.00,,,0.00,Wunderground v.1.15,2013-07-20 18:25:00,
2013-07-20 14:30:00,89.5,78.0,30.07,East,96,0.0,1.0,69,0.00,,,0.00,Wunderground v.1.15,2013-07-20 18:30:00,
2013-07-20 14:36:00,89.9,80.1,30.07,East,101,0.0,1.0,73,0.00,,,0.00,Wunderground v.1.15,2013-07-20 18:36:00,
2013-07-20 14:45:00,89.3,77.8,30.07,East,101,1.0,1.0,69,0.00,,,0.00,Wunderground v.1.15,2013-07-20 18:45:00,
2013-07-20 14:50:00,88.6,78.0,30.07,East,101,1.0,1.0,71,0.00,,,0.00,Wunderground v.1.15,2013-07-20 18:50:00,
2013-07-20 15:01:00,88.9,79.1,30.06,ENE,62,0.0,0.0,73,0.00,,,0.00,Wunderground v.1.15,2013-07-20 19:01:00,
2013-07-20 15:10:00,89.3,79.5,30.06,ESE,103,0.0,0.0,73,0.00,,,0.00,Wunderground v.1.15,2013-07-20 19:10:00,
2013-07-20 15:15:00,89.7,79.0,30.06,ESE,103,0.0,0.0,71,0.00,,,0.00,Wunderground v.1.15,2013-07-20 19:15:00,
2013-07-20 15:25:00,90.4,78.4,30.05,ENE,75,0.0,0.0,68,0.00,,,0.00,Wunderground v.1.15,2013-07-20 19:25:00,
2013-07-20 15:30:00,91.3,81.0,30.05,NNE,27,0.0,2.0,72,0.00,,,0.00,Wunderground v.1.15,2013-07-20 19:30:00,
2013-07-20 15:35:00,91.8,76.4,30.04,NE,56,1.0,2.0,61,0.00,,,0.00,Wunderground v.1.15,2013-07-20 19:35:00,
2013-07-20 15:45:00,91.3,76.9,30.06,NNW,335,0.0,7.0,63,0.00,,,0.00,Wunderground v.1.15,2013-07-20 19:45:00,
2013-07-20 15:55:00,84.8,74.8,30.07,NW,326,4.0,5.0,72,0.00,,,0.00,Wunderground v.1.15,2013-07-20 19:55:00,
2013-07-20 16:02:00,82.6,74.0,30.06,NNW,340,4.0,8.0,76,0.00,,,0.00,weatherlink.com 1.10,2013-07-20 20:02:00,
2013-07-20 16:10:00,81.0,73.1,30.07,North,6,3.0,6.0,77,0.00,,,0.00,Wunderground v.1.15,2013-07-20 20:10:00,
2013-07-20 16:16:00,79.9,73.2,30.08,NNE,32,4.0,6.0,80,0.00,,,0.00,Wunderground v.1.15,2013-07-20 20:16:00,
2013-07-20 16:25:00,78.1,74.6,30.07,East,84,2.0,4.0,89,0.41,,,0.03,Wunderground v.1.15,2013-07-20 20:25:00,
2013-07-20 16:35:00,77.5,75.0,30.06,NE,56,2.0,5.0,92,0.05,,,0.03,Wunderground v.1.15,2013-07-20 20:35:00,
2013-07-20 16:41:00,77.7,74.5,30.06,NNE,23,2.0,4.0,90,0.04,,,0.03,Wunderground v.1.15,2013-07-20 20:41:00,
2013-07-20 16:53:00,79.3,75.0,30.05,NNE,30,3.0,6.0,86,0.03,,,0.03,weatherlink.com 1.10,2013-07-20 20:53:00,
2013-07-20 17:01:00,80.5,75.6,30.05,NE,52,3.0,3.0,85,0.00,,,0.03,Wunderground v.1.15,2013-07-20 21:01:00,
2013-07-20 17:06:00,80.7,75.4,30.04,NNE,32,3.0,3.0,84,0.00,,,0.03,Wunderground v.1.15,2013-07-20 21:06:00,
2013-07-20 17:15:00,81.1,75.8,30.03,NNE,23,3.0,4.0,84,0.00,,,0.03,Wunderground v.1.15,2013-07-20 21:15:00,
2013-07-20 17:20:00,81.3,75.3,30.03,North,354,3.0,5.0,82,0.00,,,0.03,Wunderground v.1.15,2013-07-20 21:20:00,
2013-07-20 17:25:00,81.4,74.3,30.03,NNW,335,4.0,5.0,79,0.00,,,0.03,Wunderground v.1.15,2013-07-20 21:25:00,
2013-07-20 17:35:00,82.0,75.2,30.04,North,356,3.0,5.0,80,0.00,,,0.03,Wunderground v.1.15,2013-07-20 21:35:00,
2013-07-20 17:40:00,82.1,75.3,30.05,NE,55,2.0,2.0,80,0.00,,,0.03,Wunderground v.1.15,2013-07-20 21:40:00,
2013-07-20 17:45:00,82.1,74.9,30.06,ENE,57,2.0,2.0,79,0.00,,,0.03,Wunderground v.1.15,2013-07-20 21:45:00,
2013-07-20 17:55:00,82.1,74.6,30.07,North,4,3.0,6.0,78,0.00,,,0.03,Wunderground v.1.15,2013-07-20 21:55:00,
2013-07-20 18:00:00,81.7,74.2,30.07,NNE,14,3.0,5.0,78,0.00,,,0.03,Wunderground v.1.15,2013-07-20 22:00:00,
2013-07-20 18:06:00,81.1,74.3,30.07,NNE,30,4.0,5.0,80,0.00,,,0.03,Wunderground v.1.15,2013-07-20 22:06:00,
2013-07-20 18:15:00,80.3,75.0,30.07,ENE,57,2.0,2.0,84,0.00,,,0.03,Wunderground v.1.15,2013-07-20 22:15:00,
2013-07-20 18:20:00,79.7,74.4,30.07,North,6,2.0,4.0,84,0.00,,,0.03,Wunderground v.1.15,2013-07-20 22:20:00,
2013-07-20 18:30:00,78.6,74.1,30.06,NNE,23,2.0,3.0,86,0.00,,,0.03,Wunderground v.1.15,2013-07-20 22:30:00,
2013-07-20 18:35:00,78.1,73.6,30.06,NNE,20,2.0,4.0,86,0.00,,,0.03,Wunderground v.1.15,2013-07-20 22:35:00,
2013-07-20 18:40:00,77.9,73.7,30.06,ENE,58,2.0,4.0,87,0.00,,,0.03,Wunderground v.1.15,2013-07-20 22:40:00,
2013-07-20 18:45:00,77.6,73.8,30.06,NNE,30,1.0,2.0,88,0.00,,,0.03,Wunderground v.1.15,2013-07-20 22:45:00,
2013-07-20 18:55:00,76.8,73.3,30.06,ENE,63,2.0,2.0,89,0.00,,,0.03,Wunderground v.1.15,2013-07-20 22:55:00,
2013-07-20 19:00:00,76.4,73.2,30.05,ENE,78,1.0,1.0,90,0.00,,,0.03,Wunderground v.1.15,2013-07-20 23:00:00,
2013-07-20 19:10:00,75.7,72.6,30.06,NE,53,0.0,1.0,90,0.00,,,0.03,Wunderground v.1.15,2013-07-20 23:10:00,
2013-07-20 19:20:00,75.3,72.5,30.06,NE,56,1.0,1.0,91,0.00,,,0.04,Wunderground v.1.15,2013-07-20 23:20:00,
2013-07-20 19:25:00,75.1,72.3,30.06,East,80,0.0,1.0,91,0.00,,,0.04,Wunderground v.1.15,2013-07-20 23:25:00,
2013-07-20 19:30:00,75.0,72.5,30.06,ENE,60,0.0,0.0,92,0.00,,,0.04,Wunderground v.1.15,2013-07-20 23:30:00,
2013-07-20 19:35:00,74.9,72.4,30.06,East,85,0.0,0.0,92,0.00,,,0.04,Wunderground v.1.15,2013-07-20 23:35:00,
2013-07-20 19:45:00,74.7,72.2,30.06,East,85,0.0,0.0,92,0.00,,,0.04,Wunderground v.1.15,2013-07-20 23:45:00,
2013-07-20 19:51:00,74.5,72.3,30.06,East,85,0.0,0.0,93,0.00,,,0.04,Wunderground v.1.15,2013-07-20 23:51:00,
2013-07-20 20:00:00,74.3,72.1,30.06,East,84,0.0,0.0,93,0.00,,,0.04,Wunderground v.1.15,2013-07-21 00:00:00,
2013-07-20 20:05:00,74.2,72.0,30.06,East,85,0.0,0.0,93,0.00,,,0.04,Wunderground v.1.15,2013-07-21 00:05:00,
2013-07-20 20:11:00,74.4,73.0,30.06,East,94,1.0,1.0,95,0.01,,,0.04,weatherlink.com 1.10,2013-07-21 00:11:00,
2013-07-20 20:20:00,74.5,72.7,30.07,ESE,103,1.0,2.0,94,0.00,,,0.04,Wunderground v.1.15,2013-07-21 00:20:00,
2013-07-20 20:25:00,74.7,72.9,30.07,ESE,114,1.0,2.0,94,0.00,,,0.04,Wunderground v.1.15,2013-07-21 00:25:00,
2013-07-20 20:30:00,74.7,72.5,30.07,ESE,110,2.0,2.0,93,0.00,,,0.04,Wunderground v.1.15,2013-07-21 00:30:00,
2013-07-20 20:40:00,74.9,72.7,30.06,ESE,115,3.0,3.0,93,0.00,,,0.04,Wunderground v.1.15,2013-07-21 00:40:00,
2013-07-20 20:45:00,74.8,72.6,30.07,ESE,105,3.0,3.0,93,0.00,,,0.04,Wunderground v.1.15,2013-07-21 00:45:00,
2013-07-20 20:50:00,74.6,72.4,30.07,ESE,110,2.0,2.0,93,0.00,,,0.04,Wunderground v.1.15,2013-07-21 00:50:00,
2013-07-20 20:55:00,74.4,71.9,30.07,ESE,110,1.0,2.0,92,0.00,,,0.04,Wunderground v.1.15,2013-07-21 00:55:00,
2013-07-20 21:00:00,74.5,72.3,30.07,ESE,108,0.0,0.0,93,0.00,,,0.04,Wunderground v.1.15,2013-07-21 01:00:00,
2013-07-20 21:10:00,74.4,72.2,30.07,East,89,0.0,0.0,93,0.00,,,0.04,Wunderground v.1.15,2013-07-21 01:10:00,
2013-07-20 21:15:00,74.4,72.6,30.07,East,89,0.0,0.0,94,0.00,,,0.04,Wunderground v.1.15,2013-07-21 01:15:00,
2013-07-20 21:20:00,74.3,72.5,30.07,East,89,0.0,0.0,94,0.00,,,0.04,Wunderground v.1.15,2013-07-21 01:20:00,
2013-07-20 21:25:00,74.2,72.4,30.07,East,89,0.0,0.0,94,0.00,,,0.04,Wunderground v.1.15,2013-07-21 01:25:00,
2013-07-20 21:30:00,74.2,72.4,30.07,East,89,0.0,0.0,94,0.00,,,0.04,Wunderground v.1.15,2013-07-21 01:30:00,
2013-07-20 21:36:00,74.1,72.3,30.08,East,89,0.0,0.0,94,0.00,,,0.04,Wunderground v.1.15,2013-07-21 01:36:00,
2013-07-20 21:46:00,74.0,72.5,30.08,East,89,0.0,0.0,95,0.00,,,0.04,Wunderground v.1.15,2013-07-21 01:46:00,
2013-07-20 21:55:00,74.1,72.6,30.08,East,89,0.0,1.0,95,0.00,,,0.04,Wunderground v.1.15,2013-07-21 01:55:00,
2013-07-20 22:00:00,74.2,72.7,30.08,East,89,0.0,0.0,95,0.00,,,0.04,Wunderground v.1.15,2013-07-21 02:00:00,
2013-07-20 22:05:00,74.0,72.5,30.08,East,89,0.0,0.0,95,0.00,,,0.04,Wunderground v.1.15,2013-07-21 02:05:00,
2013-07-20 22:10:00,74.1,72.6,30.08,East,89,0.0,0.0,95,0.00,,,0.04,Wunderground v.1.15,2013-07-21 02:10:00,
2013-07-20 22:15:00,74.1,72.6,30.08,East,89,0.0,0.0,95,0.00,,,0.04,Wunderground v.1.15,2013-07-21 02:15:00,
2013-07-20 22:22:00,74.1,73.0,30.08,East,89,0.0,0.0,96,0.00,,,0.04,weatherlink.com 1.10,2013-07-21 02:22:00,
2013-07-20 22:30:00,74.4,73.2,30.08,East,89,0.0,0.0,96,0.00,,,0.04,Wunderground v.1.15,2013-07-21 02:30:00,
2013-07-20 22:35:00,74.4,72.9,30.08,East,89,0.0,0.0,95,0.00,,,0.04,Wunderground v.1.15,2013-07-21 02:35:00,
2013-07-20 22:45:00,74.3,72.8,30.08,East,89,0.0,0.0,95,0.00,,,0.04,Wunderground v.1.15,2013-07-21 02:45:00,
2013-07-20 22:50:00,74.3,73.1,30.09,East,89,0.0,0.0,96,0.00,,,0.04,Wunderground v.1.15,2013-07-21 02:50:00,
2013-07-20 22:55:00,74.2,73.0,30.09,East,89,0.0,0.0,96,0.00,,,0.04,Wunderground v.1.15,2013-07-21 02:55:00,
2013-07-20 23:01:00,74.2,73.0,30.09,East,89,0.0,0.0,96,0.00,,,0.04,Wunderground v.1.15,2013-07-21 03:01:00,
2013-07-20 23:10:00,74.1,72.9,30.09,East,89,0.0,0.0,96,0.00,,,0.04,Wunderground v.1.15,2013-07-21 03:10:00,
2013-07-20 23:15:00,74.1,72.9,30.09,East,89,0.0,0.0,96,0.00,,,0.04,Wunderground v.1.15,2013-07-21 03:15:00,
2013-07-20 23:20:00,74.0,72.8,30.09,East,89,0.0,0.0,96,0.00,,,0.04,Wunderground v.1.15,2013-07-21 03:20:00,
2013-07-20 23:25:00,73.9,72.7,30.09,East,89,0.0,0.0,96,0.00,,,0.04,Wunderground v.1.15,2013-07-21 03:25:00,
2013-07-20 23:30:00,73.9,72.7,30.09,East,89,0.0,0.0,96,0.00,,,0.04,Wunderground v.1.15,2013-07-21 03:30:00,
2013-07-20 23:45:00,73.9,72.7,30.09,East,89,0.0,0.0,96,0.00,,,0.04,Wunderground v.1.15,2013-07-21 03:45:00,
2013-07-20 23:50:00,73.9,73.0,30.09,East,89,0.0,0.0,97,0.00,,,0.04,Wunderground v.1.15,2013-07-21 03:50:00,
2013-07-20 23:55:00,73.8,72.9,30.10,East,89,0.0,0.0,97,0.00,,,0.04,Wunderground v.1.15,2013-07-21 03:55:00,